TimeMDT,TemperatureF,Dew PointF,Humidity,Sea Level PressureIn,VisibilityMPH,Wind Direction,Wind SpeedMPH,Gust SpeedMPH,PrecipitationIn,Events,Conditions,WindDirDegrees,DateUTC
12:15 AM,62.6,39.2,42,30.45,10.0,East,6.9,-,N/A,,Clear,100,2013-09-05 06:15:00
12:35 AM,60.8,41.0,48,30.46,10.0,East,6.9,-,N/A,,Clear,90,2013-09-05 06:35:00
12:55 AM,62.6,41.0,45,30.46,10.0,ENE,5.8,-,N/A,,Clear,60,2013-09-05 06:55:00
1:15 AM,62.6,39.2,42,30.46,10.0,ENE,3.5,-,N/A,,Clear,60,2013-09-05 07:15:00
1:35 AM,60.8,42.8,52,30.46,10.0,Calm,Calm,-,N/A,,Clear,0,2013-09-05 07:35:00
1:55 AM,55.4,41.0,58,30.46,10.0,NNE,4.6,-,N/A,,Clear,30,2013-09-05 07:55:00
2:15 AM,57.2,42.8,59,30.46,10.0,NE,5.8,-,N/A,,Clear,50,2013-09-05 08:15:00
2:35 AM,57.2,42.8,59,30.46,10.0,SE,3.5,-,N/A,,Clear,140,2013-09-05 08:35:00
2:55 AM,55.4,42.8,63,30.46,10.0,Calm,Calm,-,N/A,,Clear,0,2013-09-05 08:55:00
3:15 AM,55.4,42.8,63,30.45,10.0,Calm,Calm,-,N/A,,Clear,0,2013-09-05 09:15:00
3:35 AM,53.6,41.0,62,30.46,10.0,Calm,Calm,-,N/A,,Clear,0,2013-09-05 09:35:00
3:55 AM,55.4,41.0,58,30.45,10.0,Calm,Calm,-,N/A,,Clear,0,2013-09-05 09:55:00
4:15 AM,51.8,41.0,67,30.45,10.0,North,3.5,-,N/A,,Clear,10,2013-09-05 10:15:00
4:35 AM,51.8,41.0,67,30.45,10.0,North,4.6,-,N/A,,Clear,350,2013-09-05 10:35:00
4:55 AM,51.8,39.2,62,30.45,10.0,North,4.6,-,N/A,,Clear,350,2013-09-05 10:55:00
5:15 AM,51.8,37.4,58,30.45,10.0,North,5.8,-,N/A,,Clear,350,2013-09-05 11:15:00
5:35 AM,51.8,37.4,58,30.46,10.0,North,3.5,-,N/A,,Clear,360,2013-09-05 11:35:00
5:55 AM,51.8,39.2,62,30.46,10.0,Calm,Calm,-,N/A,,Clear,0,2013-09-05 11:55:00
6:15 AM,51.8,39.2,62,30.47,10.0,Calm,Calm,-,N/A,,Clear,0,2013-09-05 12:15:00
6:35 AM,51.8,39.2,62,30.47,10.0,Calm,Calm,-,N/A,,Clear,0,2013-09-05 12:35:00
6:55 AM,51.8,39.2,62,30.47,10.0,North,3.5,-,N/A,,Clear,360,2013-09-05 12:55:00
7:15 AM,51.8,41.0,67,30.47,10.0,North,5.8,-,N/A,,Clear,360,2013-09-05 13:15:00
7:35 AM,53.6,39.2,58,30.47,10.0,North,3.5,-,N/A,,Clear,360,2013-09-05 13:35:00
7:55 AM,55.4,39.2,54,30.47,10.0,North,3.5,-,N/A,,Clear,350,2013-09-05 13:55:00
8:15 AM,57.2,39.2,51,30.47,10.0,Calm,Calm,-,N/A,,Clear,0,2013-09-05 14:15:00
8:35 AM,59.0,39.2,48,30.47,10.0,Calm,Calm,-,N/A,,Clear,0,2013-09-05 14:35:00
8:55 AM,62.6,39.2,42,30.47,10.0,Calm,Calm,-,N/A,,Clear,0,2013-09-05 14:55:00
9:15 AM,66.2,39.2,37,30.47,10.0,Calm,Calm,-,N/A,,Clear,0,2013-09-05 15:15:00
9:35 AM,69.8,41.0,35,30.47,10.0,Calm,Calm,-,N/A,,Clear,0,2013-09-05 15:35:00
9:55 AM,71.6,39.2,31,30.47,10.0,Calm,Calm,-,N/A,,Clear,0,2013-09-05 15:55:00
10:15 AM,73.4,37.4,27,30.47,10.0,Calm,Calm,-,N/A,,Clear,0,2013-09-05 16:15:00
10:35 AM,73.4,39.2,29,30.46,10.0,Calm,Calm,-,N/A,,Clear,0,2013-09-05 16:35:00
10:55 AM,-9999,-9999,N/A,30.45,10.0,NW,5.8,-,N/A,,Clear,320,2013-09-05 16:55:00
11:15 AM,-9999,-9999,N/A,30.45,10.0,West,4.6,-,N/A,,Clear,280,2013-09-05 17:15:00
11:35 AM,-9999,-9999,N/A,30.44,10.0,Calm,Calm,-,N/A,,Clear,0,2013-09-05 17:35:00
11:55 AM,-9999,-9999,N/A,30.43,10.0,South,5.8,-,N/A,,Clear,180,2013-09-05 17:55:00
12:15 PM,-9999,-9999,N/A,30.42,10.0,WSW,3.5,-,N/A,,Clear,240,2013-09-05 18:15:00
12:35 PM,-9999,-9999,N/A,30.41,10.0,South,5.8,-,N/A,,Clear,180,2013-09-05 18:35:00
12:55 PM,-9999,-9999,N/A,30.40,10.0,WSW,8.1,-,N/A,,Clear,250,2013-09-05 18:55:00
1:15 PM,-9999,-9999,N/A,30.40,10.0,West,4.6,-,N/A,,Clear,270,2013-09-05 19:15:00
1:35 PM,-9999,-9999,N/A,30.39,10.0,SE,6.9,-,N/A,,Clear,130,2013-09-05 19:35:00
1:55 PM,-9999,-9999,N/A,30.38,10.0,SW,11.5,-,N/A,,Clear,220,2013-09-05 19:55:00
2:15 PM,84.2,37.4,19,30.38,10.0,West,5.8,-,N/A,,Clear,260,2013-09-05 20:15:00
2:35 PM,84.2,37.4,19,30.37,10.0,WSW,12.7,20.7,N/A,,Clear,250,2013-09-05 20:35:00
2:55 PM,-9999,-9999,N/A,30.36,10.0,SSW,15.0,20.7,N/A,,Partly Cloudy,210,2013-09-05 20:55:00
3:15 PM,-9999,-9999,N/A,30.36,10.0,WNW,5.8,-,N/A,,Clear,300,2013-09-05 21:15:00
3:35 PM,-9999,-9999,N/A,30.35,10.0,WSW,12.7,17.3,N/A,,Clear,240,2013-09-05 21:35:00
3:55 PM,-9999,-9999,N/A,30.35,10.0,WSW,9.2,20.7,N/A,,Scattered Clouds,250,2013-09-05 21:55:00
4:15 PM,-9999,-9999,N/A,30.35,10.0,SW,11.5,18.4,N/A,,Mostly Cloudy,230,2013-09-05 22:15:00
4:35 PM,-9999,-9999,N/A,30.35,10.0,WSW,8.1,20.7,N/A,,Scattered Clouds,250,2013-09-05 22:35:00
4:55 PM,-9999,-9999,N/A,30.35,10.0,WSW,15.0,-,N/A,,Partly Cloudy,240,2013-09-05 22:55:00
5:15 PM,-9999,-9999,N/A,30.34,10.0,WSW,16.1,20.7,N/A,,Clear,240,2013-09-05 23:15:00
5:35 PM,-9999,-9999,N/A,30.34,10.0,SSW,11.5,-,N/A,,Clear,210,2013-09-05 23:35:00
5:55 PM,-9999,-9999,N/A,30.34,10.0,WSW,10.4,-,N/A,,Scattered Clouds,240,2013-09-05 23:55:00
6:15 PM,-9999,-9999,N/A,30.34,10.0,SSW,11.5,-,N/A,,Mostly Cloudy,210,2013-09-06 00:15:00
6:35 PM,-9999,-9999,N/A,30.34,10.0,WSW,11.5,-,N/A,,Mostly Cloudy,240,2013-09-06 00:35:00
6:55 PM,80.6,35.6,20,30.35,10.0,WSW,13.8,-,N/A,,Mostly Cloudy,240,2013-09-06 00:55:00
7:15 PM,78.8,35.6,21,30.35,10.0,WSW,11.5,-,N/A,,Mostly Cloudy,240,2013-09-06 01:15:00
7:35 PM,77.0,35.6,22,30.37,10.0,SSW,9.2,-,N/A,,Scattered Clouds,210,2013-09-06 01:35:00
7:55 PM,73.4,35.6,25,30.37,10.0,South,10.4,-,N/A,,Partly Cloudy,190,2013-09-06 01:55:00
8:15 PM,73.4,35.6,25,30.38,10.0,SSE,11.5,-,N/A,,Clear,160,2013-09-06 02:15:00
8:35 PM,73.4,35.6,25,30.39,10.0,SSE,10.4,-,N/A,,Clear,150,2013-09-06 02:35:00
8:55 PM,71.6,35.6,27,30.40,10.0,ESE,8.1,-,N/A,,Clear,120,2013-09-06 02:55:00
9:15 PM,68.0,37.4,33,30.40,10.0,ESE,9.2,-,N/A,,Clear,110,2013-09-06 03:15:00
9:35 PM,66.2,37.4,35,30.41,10.0,East,8.1,-,N/A,,Clear,100,2013-09-06 03:35:00
9:55 PM,64.4,37.4,37,30.41,10.0,ESE,9.2,-,N/A,,Clear,110,2013-09-06 03:55:00
10:15 PM,66.2,35.6,32,30.41,10.0,ESE,11.5,-,N/A,,Clear,110,2013-09-06 04:15:00
10:35 PM,64.4,35.6,34,30.41,10.0,East,9.2,-,N/A,,Clear,100,2013-09-06 04:35:00
10:55 PM,64.4,35.6,34,30.42,10.0,ESE,9.2,-,N/A,,Clear,110,2013-09-06 04:55:00
11:15 PM,64.4,35.6,34,30.42,10.0,ESE,8.1,-,N/A,,Clear,110,2013-09-06 05:15:00
11:35 PM,62.6,35.6,37,30.43,10.0,East,9.2,-,N/A,,Clear,100,2013-09-06 05:35:00
11:55 PM,62.6,37.4,39,30.42,10.0,East,8.1,-,N/A,,Clear,90,2013-09-06 05:55:00